TimeEST,TemperatureF,Dew PointF,Humidity,Sea Level PressureIn,VisibilityMPH,Wind Direction,Wind SpeedMPH,Gust SpeedMPH,PrecipitationIn,Events,Conditions,WindDirDegrees,DateUTC
12:14 AM,34.0,32.2,93,29.73,7.0,North,4.6,-,N/A,,Overcast,10,2012-12-19 05:14:00
12:35 AM,34.0,32.4,94,29.74,5.0,North,3.5,-,N/A,,Overcast,10,2012-12-19 05:35:00
12:54 AM,34.0,32.4,94,29.74,5.0,North,3.5,-,N/A,,Overcast,10,2012-12-19 05:54:00
1:14 AM,34.0,32.5,94,29.74,5.0,Calm,Calm,-,N/A,,Overcast,0,2012-12-19 06:14:00
1:35 AM,34.3,32.9,94,29.76,5.0,Calm,Calm,-,N/A,,Overcast,0,2012-12-19 06:35:00
1:55 AM,34.0,32.5,94,29.76,5.0,North,3.5,-,N/A,,Overcast,350,2012-12-19 06:55:00
2:14 AM,34.2,32.9,95,29.77,5.0,Calm,Calm,-,N/A,,Overcast,0,2012-12-19 07:14:00
2:34 AM,34.2,32.9,95,29.78,5.0,Calm,Calm,-,N/A,,Overcast,0,2012-12-19 07:34:00
2:55 AM,34.3,32.9,94,29.79,5.0,Calm,Calm,-,N/A,,Overcast,0,2012-12-19 07:55:00
3:14 AM,34.2,32.7,94,29.80,5.0,West,3.5,-,N/A,,Overcast,280,2012-12-19 08:14:00
3:34 AM,34.2,32.9,95,29.81,5.0,WNW,3.5,-,N/A,,Overcast,290,2012-12-19 08:34:00
3:55 AM,34.3,32.5,93,29.83,5.0,West,3.5,-,N/A,,Overcast,280,2012-12-19 08:55:00
4:14 AM,34.3,32.4,92,29.83,5.0,Calm,Calm,-,N/A,,Overcast,0,2012-12-19 09:14:00
4:34 AM,34.3,32.2,92,29.84,7.0,West,3.5,-,N/A,,Overcast,280,2012-12-19 09:34:00
4:55 AM,34.3,32.5,93,29.84,5.0,Calm,Calm,-,N/A,,Overcast,0,2012-12-19 09:55:00
5:14 AM,34.0,32.0,92,29.85,7.0,Calm,Calm,-,N/A,,Overcast,0,2012-12-19 10:14:00
5:34 AM,33.1,31.6,94,29.85,7.0,Calm,Calm,-,N/A,,Scattered Clouds,0,2012-12-19 10:34:00
5:55 AM,32.0,31.1,96,29.86,5.0,West,3.5,-,N/A,,Scattered Clouds,280,2012-12-19 10:55:00
6:14 AM,32.4,31.8,98,29.88,5.0,Calm,Calm,-,N/A,,Mostly Cloudy,0,2012-12-19 11:14:00
6:34 AM,32.2,31.5,97,29.88,5.0,Calm,Calm,-,N/A,,Overcast,0,2012-12-19 11:34:00
6:55 AM,32.9,32.0,96,29.89,7.0,Calm,Calm,-,N/A,,Overcast,0,2012-12-19 11:55:00
7:14 AM,32.9,32.0,96,29.89,5.0,Calm,Calm,-,N/A,,Overcast,0,2012-12-19 12:14:00
7:34 AM,32.9,32.0,96,29.90,4.0,Calm,Calm,-,N/A,,Overcast,0,2012-12-19 12:34:00
7:55 AM,32.7,32.0,97,29.90,5.0,Calm,Calm,-,N/A,,Overcast,0,2012-12-19 12:55:00
8:14 AM,32.0,31.6,99,29.90,3.0,Calm,Calm,-,N/A,,Overcast,0,2012-12-19 13:14:00
8:35 AM,32.2,31.8,99,29.91,4.0,West,3.5,-,N/A,,Overcast,270,2012-12-19 13:35:00
8:54 AM,33.1,32.0,96,29.93,7.0,Calm,Calm,-,N/A,,Overcast,0,2012-12-19 13:54:00
9:14 AM,32.9,32.0,96,29.94,5.0,Calm,Calm,-,N/A,,Overcast,0,2012-12-19 14:14:00
9:39 AM,33.3,32.0,95,29.96,7.0,Calm,Calm,-,N/A,,Overcast,0,2012-12-19 14:39:00
9:54 AM,34.5,32.7,93,29.96,10.0,West,3.5,-,N/A,,Overcast,260,2012-12-19 14:54:00
10:15 AM,35.2,32.5,90,29.98,10.0,Calm,Calm,-,N/A,,Overcast,0,2012-12-19 15:15:00
10:34 AM,35.8,33.1,90,29.99,10.0,WSW,5.8,-,N/A,,Overcast,250,2012-12-19 15:34:00
10:54 AM,36.0,33.4,91,29.99,10.0,West,4.6,-,N/A,,Overcast,270,2012-12-19 15:54:00
11:15 AM,36.5,34.0,91,30.00,10.0,West,4.6,-,N/A,,Overcast,280,2012-12-19 16:15:00
11:34 AM,36.7,34.0,90,30.00,10.0,West,5.8,-,N/A,,Overcast,260,2012-12-19 16:34:00
11:55 AM,36.9,33.8,89,30.00,10.0,West,4.6,-,N/A,,Overcast,270,2012-12-19 16:55:00
12:14 PM,37.4,34.0,87,30.00,10.0,WNW,3.5,-,N/A,,Overcast,300,2012-12-19 17:14:00
12:35 PM,38.5,33.3,81,30.00,10.0,West,4.6,-,N/A,,Overcast,280,2012-12-19 17:35:00
12:54 PM,38.3,32.0,78,30.00,10.0,WSW,4.6,-,N/A,,Overcast,250,2012-12-19 17:54:00
1:14 PM,38.3,32.0,78,30.00,10.0,West,4.6,-,N/A,,Overcast,260,2012-12-19 18:14:00
1:35 PM,38.3,31.8,77,30.00,10.0,SW,4.6,-,N/A,,Overcast,230,2012-12-19 18:35:00
1:54 PM,38.3,31.8,77,30.00,10.0,WSW,4.6,-,N/A,,Overcast,250,2012-12-19 18:54:00
2:15 PM,38.3,30.9,75,30.00,10.0,WSW,4.6,-,N/A,,Overcast,240,2012-12-19 19:15:00
2:34 PM,38.5,30.0,72,30.01,10.0,WSW,4.6,-,N/A,,Overcast,250,2012-12-19 19:34:00
2:55 PM,38.3,30.2,73,30.01,10.0,SW,4.6,-,N/A,,Overcast,220,2012-12-19 19:55:00
3:14 PM,38.3,30.0,72,30.01,10.0,WSW,4.6,-,N/A,,Overcast,240,2012-12-19 20:14:00
3:34 PM,37.9,30.6,75,30.01,10.0,SSW,4.6,-,N/A,,Overcast,210,2012-12-19 20:34:00
3:55 PM,37.9,30.7,75,30.01,10.0,SSW,4.6,-,N/A,,Overcast,200,2012-12-19 20:55:00
4:14 PM,37.8,30.2,74,30.02,10.0,SSW,5.8,-,N/A,,Overcast,210,2012-12-19 21:14:00
4:34 PM,37.6,30.4,75,30.03,10.0,SSW,5.8,-,N/A,,Overcast,210,2012-12-19 21:34:00
4:55 PM,37.6,29.5,73,30.04,10.0,SSW,3.5,-,N/A,,Overcast,200,2012-12-19 21:55:00
5:14 PM,37.4,29.3,73,30.04,10.0,SW,4.6,-,N/A,,Overcast,230,2012-12-19 22:14:00
5:34 PM,37.0,29.1,73,30.05,10.0,SSW,4.6,-,N/A,,Overcast,200,2012-12-19 22:34:00
5:55 PM,36.7,28.6,72,30.06,10.0,SSW,5.8,-,N/A,,Overcast,210,2012-12-19 22:55:00
6:14 PM,36.7,28.2,71,30.06,10.0,SW,4.6,-,N/A,,Overcast,220,2012-12-19 23:14:00
6:34 PM,36.5,28.8,74,30.06,10.0,Calm,Calm,-,N/A,,Overcast,0,2012-12-19 23:34:00
6:55 PM,36.5,28.4,72,30.07,10.0,Calm,Calm,-,N/A,,Overcast,0,2012-12-19 23:55:00
7:14 PM,36.1,28.9,75,30.07,10.0,Calm,Calm,-,N/A,,Overcast,0,2012-12-20 00:14:00
7:34 PM,36.1,28.6,74,30.07,10.0,South,4.6,-,N/A,,Overcast,190,2012-12-20 00:34:00
7:55 PM,35.8,29.5,78,30.06,10.0,Calm,Calm,-,N/A,,Overcast,0,2012-12-20 00:55:00
8:14 PM,36.0,28.4,74,30.06,10.0,Calm,Calm,-,N/A,,Overcast,0,2012-12-20 01:14:00
8:34 PM,34.9,29.3,80,30.05,10.0,Calm,Calm,-,N/A,,Mostly Cloudy,0,2012-12-20 01:34:00
8:55 PM,33.4,29.5,85,30.05,10.0,Calm,Calm,-,N/A,,Mostly Cloudy,0,2012-12-20 01:55:00
9:14 PM,33.1,31.3,93,30.05,10.0,Calm,Calm,-,N/A,,Overcast,0,2012-12-20 02:14:00
9:34 PM,33.6,31.8,93,30.06,10.0,Calm,Calm,-,N/A,,Overcast,0,2012-12-20 02:34:00
9:55 PM,34.7,31.6,89,30.05,10.0,Calm,Calm,-,N/A,,Overcast,0,2012-12-20 02:55:00
10:14 PM,34.9,31.8,89,30.05,10.0,Calm,Calm,-,N/A,,Overcast,0,2012-12-20 03:14:00
10:34 PM,34.9,32.0,89,30.05,10.0,Calm,Calm,-,N/A,,Overcast,0,2012-12-20 03:34:00
10:55 PM,34.9,32.0,89,30.04,10.0,Calm,Calm,-,N/A,,Overcast,0,2012-12-20 03:55:00
11:14 PM,34.9,32.0,89,30.04,10.0,Calm,Calm,-,N/A,,Overcast,0,2012-12-20 04:14:00
11:34 PM,35.2,32.0,88,30.03,10.0,Calm,Calm,-,N/A,,Overcast,0,2012-12-20 04:34:00
11:55 PM,35.6,31.1,84,30.02,10.0,Calm,Calm,-,N/A,,Overcast,0,2012-12-20 04:55:00